Date String (YYYY-MM-DD hh:mm:ss) UTC,Instrument flags,absolute air pressure of the measurement (hPa),sample flow rate (lpm),inlet stack bypass flow (lpm),air temperature of the measurement (°C),ambient temperature measured by the external sensor (°C),aerosol sample conditioner tube jacket temperature (°C),OPC LED temperature (°C),internal box temperature (°C),relative humidity of the measurement (%),span deviation,mass concentration of particles derived from Lorenz-Mie calculation of OPC scattering (μg/m³),mass concentration of particles derived from Lorenz-Mie calculation of OPC scattering (μg/m³),mass concentration of particles derived from Lorenz-Mie calculation of OPC scattering (μg/m³)
DateTimeUTC,F1_M11,P_M11,Q1_M11,Q2_M11,T1_M11,T2_M11,T3_M11,T4_M11,T5_M11,U1_M11,ZSPAN_M11,X0_M11,X2_M11,X1_M11
2024-02-06 21:00:00,SystemResetWarning,0822.1,5.00,000.00,022.6,022.2,000.0,030.7,024.4,14.0,0000.0,0002.21,0001.04,0000.78
2024-02-06 21:01:00,SystemResetWarning,0822.0,5.00,000.00,022.6,022.2,000.0,030.7,024.4,13.7,0000.0,0002.25,0001.04,0000.79
2024-02-06 21:02:00,SystemResetWarning,0822.0,4.99,000.00,022.6,022.2,000.0,030.8,024.4,13.7,0000.0,0002.36,0001.05,0000.78
2024-02-06 21:03:00,SystemResetWarning,0822.0,5.01,000.00,022.7,022.2,000.0,030.8,024.4,13.7,0000.0,0002.34,0001.04,0000.77
2024-02-06 21:04:00,SystemResetWarning,0822.0,5.00,000.00,022.7,022.2,000.0,030.8,024.4,13.9,0000.0,0002.16,0000.98,0000.76
2024-02-06 21:05:00,SystemResetWarning,0822.0,5.01,000.00,022.7,022.3,000.0,030.8,024.5,13.9,0000.0,0002.16,0000.95,0000.75
2024-02-06 21:06:00,SystemResetWarning,0822.0,5.00,000.00,022.7,022.3,000.0,030.8,024.5,14.2,0000.0,0002.17,0000.95,0000.75
2024-02-06 21:07:00,SystemResetWarning,0821.9,5.00,000.00,022.7,022.3,000.0,030.8,024.5,14.3,0000.0,0002.15,0000.94,0000.74
2024-02-06 21:08:00,SystemResetWarning,0821.9,4.99,000.00,022.7,022.3,000.0,030.9,024.5,14.1,0000.0,0002.23,0000.97,0000.75
2024-02-06 21:09:00,SystemResetWarning,0821.9,4.99,000.00,022.7,022.3,000.0,030.9,024.5,14.3,0000.0,0002.23,0000.97,0000.74
2024-02-06 21:10:00,SystemResetWarning,0821.9,4.99,000.00,022.8,022.3,000.0,030.9,024.5,14.4,0000.0,0002.26,0000.99,0000.74
2024-02-06 21:11:00,SystemResetWarning,0821.8,5.01,000.00,022.8,022.3,000.0,030.9,024.6,14.6,0000.0,0002.29,0001.02,0000.74
2024-02-06 21:12:00,SystemResetWarning,0821.9,5.01,000.00,022.8,022.3,000.0,030.9,024.6,14.7,0000.0,0002.54,0001.01,0000.73
2024-02-06 21:13:00,SystemResetWarning,0821.9,5.00,000.00,022.8,022.4,000.0,030.9,024.6,14.7,0000.0,0003.72,0000.99,0000.73
2024-02-06 21:14:00,SystemResetWarning,0821.9,5.00,000.00,022.8,022.4,000.0,031.0,024.6,15.2,0000.0,0004.00,0001.01,0000.74
2024-02-06 21:15:00,SystemResetWarning,0821.8,5.00,000.00,022.8,022.4,000.0,031.0,024.6,15.8,0000.0,0004.10,0001.05,0000.75
2024-02-06 21:16:00,SystemResetWarning,0821.8,5.00,000.00,022.9,022.4,000.0,031.0,024.6,16.0,0000.0,0004.08,0001.05,0000.75
2024-02-06 21:17:00,SystemResetWarning,0821.9,5.00,000.00,022.9,022.4,000.0,031.0,024.6,15.8,0000.0,0004.07,0001.06,0000.76
2024-02-06 21:18:00,SystemResetWarning,0821.9,5.00,000.00,022.9,022.4,000.0,031.0,024.6,15.8,0000.0,0004.11,0001.07,0000.77
2024-02-06 21:19:00,SystemResetWarning,0821.8,5.00,000.00,022.9,022.4,000.0,031.0,024.6,15.9,0000.0,0004.10,0001.05,0000.76
2024-02-06 21:20:00,SystemResetWarning,0821.8,5.00,000.00,022.9,022.4,000.0,031.0,024.7,15.7,0000.0,0004.22,0001.07,0000.78
2024-02-06 21:21:00,SystemResetWarning,0821.9,5.00,000.00,022.9,022.4,000.0,031.1,024.7,15.9,0000.0,0004.32,0001.08,0000.78
2024-02-06 21:22:00,SystemResetWarning,0821.9,5.00,000.00,022.9,022.4,000.0,031.1,024.7,15.9,0000.0,0003.86,0001.04,0000.77
2024-02-06 21:23:00,SystemResetWarning,0821.9,5.00,000.00,022.9,022.5,000.0,031.1,024.7,16.0,0000.0,0003.50,0001.06,0000.78
2024-02-06 21:24:00,SystemResetWarning,0821.8,5.00,000.00,023.0,022.5,000.0,031.1,024.7,16.2,0000.0,0002.19,0001.10,0000.80
2024-02-06 21:25:00,SystemResetWarning,0821.8,5.01,000.00,023.0,022.5,000.0,031.1,024.8,15.9,0000.0,0001.98,0001.10,0000.81
2024-02-06 21:26:00,SystemResetWarning,0821.8,5.00,000.00,023.0,022.5,000.0,031.1,024.8,15.3,0000.0,0002.06,0001.12,0000.82
2024-02-06 21:27:00,SystemResetWarning,0821.8,5.00,000.00,023.0,022.5,000.0,031.2,024.8,15.1,0000.0,0002.08,0001.14,0000.83
2024-02-06 21:28:00,SystemResetWarning,0821.8,4.99,000.00,023.0,022.5,000.0,031.2,024.8,15.2,0000.0,0002.03,0001.13,0000.83
2024-02-06 21:29:00,SystemResetWarning,0821.8,4.99,000.00,023.0,022.6,000.0,031.2,024.8,15.3,0000.0,0002.12,0001.15,0000.84
2024-02-06 21:30:00,SystemResetWarning,0821.8,5.00,000.00,023.0,022.6,000.0,031.2,024.8,15.4,0000.0,0002.24,0001.16,0000.86
2024-02-06 21:31:00,SystemResetWarning,0821.8,5.00,000.00,023.0,022.6,000.0,031.2,024.8,15.3,0000.0,0002.63,0001.16,0000.85
2024-02-06 21:32:00,SystemResetWarning,0821.7,5.00,000.00,023.1,022.6,000.0,031.2,024.9,15.0,0000.0,0002.78,0001.14,0000.85
2024-02-06 21:33:00,SystemResetWarning,0821.7,5.01,000.00,023.1,022.6,000.0,031.2,024.9,14.8,0000.0,0002.73,0001.13,0000.87
2024-02-06 21:34:00,SystemResetWarning,0821.7,5.01,000.00,023.1,022.6,000.0,031.3,024.9,14.3,0000.0,0002.71,0001.13,0000.88
2024-02-06 21:35:00,SystemResetWarning,0821.7,5.00,000.00,023.1,022.6,000.0,031.3,024.9,14.3,0000.0,0002.71,0001.14,0000.87
2024-02-06 21:36:00,SystemResetWarning,0821.7,4.99,000.00,023.1,022.6,000.0,031.3,024.9,14.6,0000.0,0002.78,0001.16,0000.86
2024-02-06 21:37:00,SystemResetWarning,0821.7,5.00,000.00,023.1,022.7,000.0,031.3,024.9,14.5,0000.0,0002.69,0001.16,0000.87
2024-02-06 21:38:00,SystemResetWarning,0821.7,5.00,000.00,023.1,022.7,000.0,031.3,024.9,14.7,0000.0,0002.93,0001.17,0000.88
2024-02-06 21:39:00,SystemResetWarning,0821.7,5.01,000.00,023.2,022.7,000.0,031.3,024.9,14.7,0000.0,0003.02,0001.20,0000.88
2024-02-06 21:40:00,SystemResetWarning,0821.7,5.00,000.00,023.2,022.7,000.0,031.3,024.9,14.8,0000.0,0002.92,0001.20,0000.90
2024-02-06 21:41:00,SystemResetWarning,0821.7,5.00,000.00,023.2,022.7,000.0,031.3,025.0,14.8,0000.0,0002.78,0001.20,0000.93
2024-02-06 21:42:00,SystemResetWarning,0821.6,5.00,000.00,023.2,022.7,000.0,031.4,025.0,14.8,0000.0,0002.31,0001.20,0000.97
2024-02-06 21:43:00,SystemResetWarning,0821.6,4.99,000.00,023.2,022.7,000.0,031.4,025.0,14.1,0000.0,0001.87,0001.23,0001.01
2024-02-06 21:44:00,SystemResetWarning,0821.6,5.01,000.00,023.2,022.7,000.0,031.4,025.0,13.7,0000.0,0001.96,0001.28,0001.04
2024-02-06 21:45:00,SystemResetWarning,0821.6,5.00,000.00,023.2,022.8,000.0,031.4,025.0,13.7,0000.0,0002.13,0001.36,0001.07
2024-02-06 21:46:00,SystemResetWarning,0821.6,5.00,000.00,023.3,022.8,000.0,031.4,025.0,13.8,0000.0,0002.10,0001.36,0001.10
2024-02-06 21:47:00,SystemResetWarning,0821.6,5.00,000.00,023.3,022.8,000.0,031.4,025.0,13.7,0000.0,0002.11,0001.38,0001.14
2024-02-06 21:48:00,SystemResetWarning,0821.6,5.01,000.00,023.3,022.8,000.0,031.5,025.0,14.1,0000.0,0002.16,0001.42,0001.17
2024-02-06 21:49:00,SystemResetWarning,0821.6,5.00,000.00,023.3,022.8,000.0,031.5,025.1,14.6,0000.0,0002.15,0001.43,0001.19
2024-02-06 21:50:00,SystemResetWarning,0821.5,5.00,000.00,023.3,022.8,000.0,031.5,025.1,14.6,0000.0,0002.13,0001.45,0001.22
2024-02-06 21:51:00,SystemResetWarning,0821.8,4.99,000.00,023.3,022.8,000.0,031.5,025.1,14.1,0000.0,0002.14,0001.47,0001.24
2024-02-06 21:52:00,SystemResetWarning,0822.1,4.99,000.00,023.3,022.8,000.0,031.5,025.1,14.1,0000.0,0002.17,0001.47,0001.24
2024-02-06 21:53:00,SystemResetWarning,0822.0,5.00,000.00,023.3,022.9,000.0,031.5,025.1,13.7,0000.0,0002.17,0001.47,0001.23
2024-02-06 21:54:00,SystemResetWarning,0821.4,5.00,000.00,023.4,022.9,000.0,031.5,025.1,13.6,0000.0,0002.21,0001.48,0001.24
2024-02-06 21:55:00,SystemResetWarning,0821.3,5.02,000.00,023.4,022.9,000.0,031.5,025.1,13.6,0000.0,0002.24,0001.49,0001.25
2024-02-06 21:56:00,SystemResetWarning,0821.3,4.99,000.00,023.4,022.9,000.0,031.5,025.1,13.7,0000.0,0002.18,0001.49,0001.28
2024-02-06 21:57:00,SystemResetWarning,0821.3,4.99,000.00,023.4,022.9,000.0,031.6,025.1,13.7,0000.0,0002.29,0001.57,0001.32
2024-02-06 21:58:00,SystemResetWarning,0821.3,5.00,000.00,023.4,022.9,000.0,031.6,025.1,14.0,0000.0,0002.33,0001.63,0001.38
2024-02-06 21:59:00,SystemResetWarning,0821.3,5.01,000.00,023.4,022.9,000.0,031.6,025.2,13.8,0000.0,0002.30,0001.64,0001.44
